Starlink 31635

operational
NORAD ID: 59511 Int'l Des: 2024-073 Owner: SPXS Country: US Constellation: starlink
LEOCIRCULAR

About Starlink 31635

Description loading...

Live Position

Loading 3D Globe...

Upcoming Passes

Altitude History

Altitude vs Time

uPlot chart will show altitude changes over time

Two-Line Element Set

1 59511U 24073A 26034.38560615 .00000183 00000-0 16184-4 0 9992
2 59511 42.9991 151.3743 0001305 251.9638 108.1072 15.27578036100930
Epoch: Feb 3, 2026 • Age: 23 hours

Current Status

Altitude 483.6 km
Velocity 7.63 km/s
Sub-Earth Point -6.55°S, 77.78°E
Launch Date Apr 17, 2024
Age 1.7 years
Type internet

Technical Details

Classification Payload
Mass 730.00 kg
Dry Mass 700.00 kg
Total Mass 730.00 kg
Length 0.30 m
Diameter 4.10 m
Span 29.00 m
Shape Box + pan
Manufacturer SPXS
Bus Type Starlink V2M
Phase Status In Orbit
Owner/State SPXS/US

Large Constellations

Loading constellations...